Weather History for Oakland, CA

Change the Weather History Date:

Thursday, May 8, 2014

  Actual Average Record
Temperature  
Mean Temperature 60 °F 59 °F  
Max Temperature 65 °F 67 °F 88 °F (2001)
Min Temperature 54 °F 51 °F 42 °F (1950)
Degree Days  
Heating Degree Days 5 6  
Month to date heating degree days 28 51  
Since 1 July heating degree days 2203 2637  
Cooling Degree Days 0 0  
Month to date cooling degree days 6 0  
Year to date cooling degree days 19 6  
Growing Degree Days 10 (Base 50)    
Moisture  
Dew Point 50 °F    
Average Humidity 73    
Maximum Humidity 84    
Minimum Humidity 62    
Precipitation  
Precipitation T in 0.03 in 0.42 in (1956)
Month to date precipitation T 0.28  
Year to date precipitation 7.95 12.64  
Since 1 July precipitation 10.02 20.23  
Sea Level Pressure  
Sea Level Pressure 30.06 in    
Wind  
Wind Speed 10 mph (WSW)    
Max Wind Speed 18 mph    
Max Gust Speed 23 mph    
Visibility 10 miles    
Events Rain    
T = Trace of Precipitation, MM = Missing Value Source: NWS Daily Summary

Daily Weather History Graph

Daily Weather History Graph

Search for Another Location

Airport:

Trip Planner

Search our weather history database for the weather conditions in past years. The results will help you decide how hot, cold, wet, or windy it might be!

Date:

Astronomy

May. 08, 2014 Rise Set
Actual Time 6:05 AM PDT 8:05 PM PDT
Civil Twilight 5:36 AM PDT 8:34 PM PDT
Nautical Twilight 5:01 AM PDT 9:09 PM PDT
Astronomical Twilight 4:24 AM PDT 9:47 PM PDT
Moon 2:17 PM PDT (5/8) 2:32 AM PDT (5/8)
Length of Visible Light 14h 57m
Length of Day
14h 00m
Waxing Gibbous, 66% of the Moon is Illuminated
May 8
Waxing Gibbous
May 14
Full
May 21
Last Quarter
May 28
New
Jun 5
First Quarter

Hourly Weather History & Observations

Time (PDT) Temp. Dew Point Humidity Pressure Visibility Wind Dir Wind Speed Gust Speed Precip Events Conditions
12:53 AM 55.0 °F 46.9 °F 74% 30.01 in 10.0 mi WSW 15.0 mph - N/A   Scattered Clouds
1:53 AM 55.0 °F 46.9 °F 74% 30.01 in 10.0 mi West 9.2 mph - N/A   Overcast
2:03 AM 55.4 °F 46.4 °F 72% 30.01 in 10.0 mi West 11.5 mph - N/A   Overcast
2:24 AM 55.4 °F 46.4 °F 72% 30.01 in 10.0 mi WNW 17.3 mph - N/A   Overcast
2:53 AM 55.0 °F 46.9 °F 74% 30.01 in 10.0 mi West 13.8 mph - N/A   Overcast
3:53 AM 55.0 °F 46.9 °F 74% 30.02 in 10.0 mi West 8.1 mph - N/A   Scattered Clouds
4:53 AM 55.0 °F 46.9 °F 74% 30.03 in 10.0 mi West 10.4 mph - N/A   Mostly Cloudy
5:27 AM 55.4 °F 46.4 °F 72% 30.03 in 10.0 mi West 11.5 mph - N/A   Overcast
5:53 AM 55.0 °F 46.9 °F 74% 30.03 in 10.0 mi WSW 10.4 mph - N/A   Overcast
6:09 AM 55.4 °F 46.4 °F 72% 30.03 in 10.0 mi West 11.5 mph - N/A   Mostly Cloudy
6:53 AM 55.9 °F 46.9 °F 72% 30.04 in 10.0 mi West 12.7 mph - N/A   Overcast
7:53 AM 57.9 °F 45.0 °F 62% 30.06 in 10.0 mi WSW 6.9 mph - N/A   Overcast
8:21 AM 57.2 °F 44.6 °F 63% 30.07 in 10.0 mi West 5.8 mph - N/A   Overcast
8:53 AM 57.9 °F 46.9 °F 67% 30.08 in 10.0 mi SW 3.5 mph - N/A   Overcast
9:53 AM 57.2 °F 48.2 °F 72% 30.09 in 10.0 mi WSW 9.2 mph - N/A   Overcast
10:53 AM 60.8 °F 50.0 °F 68% 30.09 in 10.0 mi WSW 5.8 mph - N/A   Overcast
11:53 AM 60.1 °F 50.0 °F 69% 30.10 in 10.0 mi South 5.8 mph - N/A   Overcast
12:53 PM 62.1 °F 51.1 °F 67% 30.09 in 10.0 mi Calm Calm - N/A   Overcast
1:53 PM 64.4 °F 51.8 °F 64% 30.09 in 10.0 mi Variable 5.8 mph - N/A   Overcast
2:53 PM 64.0 °F 54.0 °F 70% 30.08 in 10.0 mi SW 11.5 mph - N/A   Overcast
3:20 PM 62.6 °F 53.6 °F 72% 30.08 in 10.0 mi SW 10.4 mph - N/A   Overcast
3:53 PM 63.0 °F 53.1 °F 70% 30.07 in 10.0 mi SSW 9.2 mph - N/A   Overcast
4:28 PM 64.4 °F 53.6 °F 68% 30.06 in 10.0 mi SSW 9.2 mph - N/A   Overcast
4:53 PM 64.9 °F 54.0 °F 68% 30.06 in 10.0 mi SSW 16.1 mph - N/A   Overcast
5:53 PM 64.0 °F 55.0 °F 73% 30.06 in 10.0 mi SW 12.7 mph - N/A   Mostly Cloudy
6:53 PM 63.0 °F 55.0 °F 75% 30.07 in 10.0 mi WSW 10.4 mph - N/A   Mostly Cloudy
7:53 PM 63.0 °F 55.0 °F 75% 30.06 in 10.0 mi SW 13.8 mph - N/A   Overcast
8:53 PM 61.0 °F 55.9 °F 83% 30.07 in 9.0 mi WSW 17.3 mph - 0.00 in Rain Light Rain
9:53 PM 61.0 °F 55.0 °F 81% 30.08 in 10.0 mi WSW 12.7 mph - 0.00 in   Overcast
10:53 PM 60.1 °F 55.0 °F 83% 30.10 in 10.0 mi WSW 10.4 mph - N/A   Overcast
11:11 PM 59.0 °F 55.4 °F 88% 30.10 in 10.0 mi West 10.4 mph - N/A   Overcast
11:53 PM 59.0 °F 55.0 °F 87% 30.10 in 6.0 mi West 8.1 mph - 0.00 in   Light Drizzle